Scottsbluff, NE

10:20 PM MDT on March 25, 2017 (GMT -0600)
Heilig

Weather History for KBFF - August, 2013

Change the Weather History Date:

Sunday, August 18, 2013

  Actual Average Record
Temperature  
Mean Temperature 78 °F 72 °F  
Max Temperature 93 °F 88 °F 100 °F (1921)
Min Temperature 63 °F 56 °F 45 °F (1968)
Degree Days  
Heating Degree Days 0 0  
Month to date heating degree days 0 0  
Since 1 June heating degree days 23 66  
Since 1 July heating degree days 2 6  
Cooling Degree Days 13 7  
Month to date cooling degree days 141 151  
Year to date cooling degree days 707 587  
Since 1 June cooling degree days 653 564  
Growing Degree Days 28 (Base 50)    
Moisture  
Dew Point 61 °F    
Average Humidity 66    
Maximum Humidity 100    
Minimum Humidity 32    
Precipitation  
Precipitation T in 0.03 in 1.14 in (1937)
Month to date precipitation 0.75 0.82  
Year to date precipitation 7.81 11.82  
Snow  
Snow 0.00 in 0.00 in - ()
Month to date snowfall 0.0 0.0  
Since 1 July snowfall 0.0 0.0  
Snow Depth 0.00 in    
Sea Level Pressure  
Sea Level Pressure 29.95 in    
Wind  
Wind Speed 9 mph (ESE)    
Max Wind Speed 33 mph    
Max Gust Speed 43 mph    
Visibility 6 miles    
Events Fog , Rain , Thunderstorm    
T = Trace of Precipitation, MM = Missing Value Source: NWS Daily Summary

Daily Weather History Graph

Daily Weather History Graph

Search for Another Location

Airport or City:

Trip Planner

Search our weather history database for the weather conditions in past years. The results will help you decide how hot, cold, wet, or windy it might be!

Date:

Astronomy

Aug. 18, 2013 Rise Set
Actual Time 6:05 AM MDT 7:49 PM MDT
Civil Twilight 5:36 AM MDT 8:19 PM MDT
Nautical Twilight 5:00 AM MDT 8:55 PM MDT
Astronomical Twilight 4:21 AM MDT 9:33 PM MDT
Moon 5:58 PM MDT (8/18) 3:16 AM MDT (8/18)
Length of Visible Light 14h 43m
Length of Day
13h 43m
Waxing Gibbous, 92% of the Moon is Illuminated
Aug 18
Waxing Gibbous
Aug 20
Full
Aug 28
Last Quarter
Sep 5
New
Sep 12
First Quarter

Hourly Weather History & Observations

Time (MDT) Temp. Heat Index Dew Point Humidity Pressure Visibility Wind Dir Wind Speed Gust Speed Precip Events Conditions
12:53 AM 66.0 °F - 63.0 °F 90% 29.92 in 7.0 mi East 8.1 mph - N/A   Clear
1:53 AM 64.9 °F - 62.1 °F 90% 29.90 in 6.0 mi East 9.2 mph - N/A   Clear
2:53 AM 64.0 °F - 62.1 °F 93% 29.89 in 5.0 mi East 8.1 mph - N/A   Clear
3:53 AM 63.0 °F - 62.1 °F 97% 29.89 in 4.0 mi East 6.9 mph - N/A   Clear
4:03 AM 62.6 °F - 62.6 °F 100% 30.04 in 4.0 mi East 8.1 mph - N/A   Scattered Clouds
4:10 AM 62.6 °F - 62.6 °F 100% 30.04 in 2.5 mi East 9.2 mph - N/A   Mostly Cloudy
4:18 AM 62.6 °F - 62.6 °F 100% 30.04 in 0.8 mi ESE 8.1 mph - N/A   Mist
4:29 AM 62.6 °F - 62.6 °F 100% 30.03 in 0.2 mi East 9.2 mph - N/A Fog Fog
4:53 AM 63.0 °F - 62.1 °F 97% 29.89 in 0.2 mi ESE 6.9 mph - N/A Fog Fog
5:53 AM 63.0 °F - 62.1 °F 97% 29.90 in 0.2 mi ESE 8.1 mph - N/A Fog Fog
6:53 AM 63.0 °F - 62.1 °F 97% 29.91 in 0.2 mi ESE 10.4 mph - N/A Fog Fog
7:53 AM 64.0 °F - 63.0 °F 96% 29.93 in 0.2 mi ESE 9.2 mph - N/A Fog Fog
8:42 AM 64.4 °F - 64.4 °F 100% 30.06 in 0.2 mi SE 9.2 mph - N/A Fog Fog
8:50 AM 64.4 °F - 64.4 °F 100% 30.06 in 0.5 mi SE 11.5 mph - N/A Fog Fog
8:53 AM 64.9 °F - 64.0 °F 97% 29.94 in 0.2 mi ESE 10.4 mph - N/A Fog Fog
9:05 AM 64.4 °F - 64.4 °F 100% 30.06 in 0.8 mi ESE 10.4 mph - N/A   Mist
9:24 AM 66.2 °F - 64.4 °F 94% 30.06 in 2.0 mi ESE 10.4 mph - N/A   Overcast
9:35 AM 66.2 °F - 64.4 °F 94% 30.06 in 4.0 mi SE 9.2 mph 16.1 mph N/A   Overcast
9:53 AM 70.0 °F - 64.9 °F 84% 29.93 in 7.0 mi SE 8.1 mph - N/A   Overcast
10:05 AM 71.6 °F - 64.4 °F 78% 30.05 in 8.0 mi SE 8.1 mph - N/A   Mostly Cloudy
10:21 AM 73.4 °F - 64.4 °F 73% 30.05 in 9.0 mi ESE 11.5 mph - N/A   Scattered Clouds
10:53 AM 77.0 °F - 64.9 °F 66% 29.91 in 10.0 mi ESE 11.5 mph - N/A   Clear
11:53 AM 81.0 °F 82.7 °F 64.9 °F 58% 29.91 in 10.0 mi East 10.4 mph - N/A   Clear
12:53 PM 82.9 °F 85.0 °F 66.0 °F 56% 29.91 in 10.0 mi ESE 4.6 mph - N/A   Clear
1:53 PM 88.0 °F 89.3 °F 64.0 °F 45% 29.88 in 10.0 mi ESE 8.1 mph - N/A   Clear
2:53 PM 90.0 °F 90.3 °F 62.1 °F 39% 29.88 in 10.0 mi East 5.8 mph - N/A   Clear
3:53 PM 91.9 °F 90.6 °F 57.0 °F 31% 29.85 in 10.0 mi ESE 6.9 mph - N/A   Clear
4:53 PM 91.0 °F 91.5 °F 62.1 °F 38% 29.85 in 10.0 mi ESE 10.4 mph - N/A   Clear
5:53 PM 86.0 °F 86.3 °F 62.1 °F 44% 29.85 in 10.0 mi SE 13.8 mph - N/A   Clear
6:35 PM 82.4 °F 82.9 °F 60.8 °F 48% 30.01 in 10.0 mi WSW 17.3 mph - N/A Thunderstorm Partly Cloudy
6:44 PM 78.8 °F - 51.8 °F 39% 30.00 in 10.0 mi West 17.3 mph - N/A Thunderstorm Partly Cloudy
6:53 PM 78.1 °F - 52.0 °F 40% 29.90 in 10.0 mi West 6.9 mph 23.0 mph N/A Thunderstorm Mostly Cloudy
7:18 PM 71.6 °F - 57.2 °F 60% 30.09 in 10.0 mi NNW 23.0 mph 42.6 mph 0.00 in Rain , Thunderstorm Light Thunderstorms and Rain
7:53 PM 82.0 °F - 48.0 °F 30% 29.93 in 10.0 mi East 13.8 mph 26.5 mph 0.00 in Rain , Thunderstorm Light Rain
8:29 PM 73.4 °F - 53.6 °F 50% 30.06 in 10.0 mi SSE 13.8 mph 21.9 mph 0.00 in   Partly Cloudy
8:53 PM 80.1 °F - 46.0 °F 30% 29.91 in 10.0 mi SE 17.3 mph 28.8 mph 0.00 in   Clear
9:53 PM 73.9 °F - 48.9 °F 41% 29.94 in 10.0 mi South 8.1 mph - N/A   Clear
10:53 PM 73.9 °F - 61.0 °F 64% 29.93 in 10.0 mi SE 9.2 mph - N/A   Clear
11:53 PM 66.9 °F - 60.1 °F 79% 29.93 in 10.0 mi East 6.9 mph - N/A   Clear